Orbital Elements at Epoch 2459200.5 (2020-Dec-17.0) TDB
Reference: JPL 11 (heliocentric ecliptic J2000)
Element | Value | Uncertainty (1-sigma) | Units |
e | .2147851852556891 | 8.7799e-08 | |
a | 3.054220133578931 | 5.7016e-08 | au |
q | 2.398218896376525 | 2.8688e-07 | au |
i | 26.12545791522392 | 7.0895e-06 | deg |
node | 173.9829347666145 | 2.1384e-05 | deg |
peri | 272.9653590807163 | 2.5646e-05 | deg |
M | 265.4853842697061 | 1.9944e-05 | deg |
tp | 2459712.353176292114 (2022-May-12.85317629) | 0.00011819 | TDB |
period | 1949.615327125532 5.34 | 5.4593e-05 1.495e-07 | d yr |
n | .1846518105347354 | 5.1706e-09 | deg/d |
Q | 3.710221370781337 | 6.9263e-08 | au |
|
| | Orbit Determination Parameters
Additional Information
|